Time,TemperatureF,DewpointF,PressureIn,WindDirection,WindDirectionDegrees,WindSpeedMPH,WindSpeedGustMPH,Humidity,HourlyPrecipIn,Conditions,Clouds,dailyrainin,SolarRadiationWatts/m^2,SoftwareType,DateUTC
2013-03-24 00:03:00,44.0,41.0,29.07,SSW,201,2.0,6.0,88,0.00,,,0.04,0.000000,,2013-03-24 04:03:00,
2013-03-24 00:10:00,42.0,39.0,29.05,WNW,282,1.0,5.0,90,0.00,,,0.04,0.000000,,2013-03-24 04:10:00,
2013-03-24 00:33:00,42.0,39.0,29.05,WNW,282,1.0,5.0,90,0.00,,,0.04,0.000000,,2013-03-24 04:33:00,
2013-03-24 00:43:00,42.0,39.0,29.05,WNW,282,1.0,5.0,90,0.00,,,0.04,0.000000,,2013-03-24 04:43:00,
2013-03-24 00:53:00,42.0,39.0,29.05,WNW,282,1.0,5.0,90,0.00,,,0.04,0.000000,,2013-03-24 04:53:00,
2013-03-24 01:03:00,42.0,39.0,29.05,WNW,282,1.0,5.0,90,0.00,,,0.04,0.000000,,2013-03-24 05:03:00,
2013-03-24 01:10:00,42.0,40.0,29.03,NNW,347,1.0,5.0,91,0.00,,,0.04,0.000000,,2013-03-24 05:10:00,
2013-03-24 01:33:00,42.0,40.0,29.03,NNW,347,1.0,5.0,91,0.00,,,0.04,0.000000,,2013-03-24 05:33:00,
2013-03-24 01:43:00,42.0,40.0,29.03,NNW,347,1.0,5.0,91,0.00,,,0.04,0.000000,,2013-03-24 05:43:00,
2013-03-24 01:52:00,42.0,40.0,29.03,NNW,347,1.0,5.0,91,0.00,,,0.04,0.000000,,2013-03-24 05:52:00,
2013-03-24 02:02:00,42.0,40.0,29.03,NNW,347,1.0,5.0,91,0.00,,,0.04,0.000000,,2013-03-24 06:02:00,
2013-03-24 02:10:00,44.0,41.0,29.07,South,170,1.0,3.0,89,0.00,,,0.04,0.000000,,2013-03-24 06:10:00,
2013-03-24 02:32:00,44.0,41.0,29.07,South,170,1.0,3.0,89,0.00,,,0.04,0.000000,,2013-03-24 06:32:00,
2013-03-24 02:42:00,44.0,41.0,29.07,South,170,1.0,3.0,89,0.00,,,0.04,0.000000,,2013-03-24 06:42:00,
2013-03-24 02:52:00,44.0,41.0,29.07,South,170,1.0,3.0,89,0.00,,,0.04,0.000000,,2013-03-24 06:52:00,
2013-03-24 03:02:00,44.0,41.0,29.07,South,170,1.0,3.0,89,0.00,,,0.04,0.000000,,2013-03-24 07:02:00,
2013-03-24 03:10:00,43.0,41.0,29.00,North,10,5.0,8.0,94,0.02,,,0.06,0.000000,,2013-03-24 07:10:00,
2013-03-24 03:32:00,43.0,41.0,29.00,North,10,5.0,8.0,94,0.02,,,0.06,0.000000,,2013-03-24 07:32:00,
2013-03-24 03:42:00,43.0,41.0,29.00,North,10,5.0,8.0,94,0.02,,,0.06,0.000000,,2013-03-24 07:42:00,
2013-03-24 03:52:00,43.0,41.0,29.00,North,10,5.0,8.0,94,0.02,,,0.06,0.000000,,2013-03-24 07:52:00,
2013-03-24 04:03:00,43.0,41.0,29.00,North,10,5.0,8.0,94,0.02,,,0.06,0.000000,,2013-03-24 08:03:00,
2013-03-24 04:10:00,43.0,41.0,-100.00,NW,306,1.0,10.0,94,0.02,,,0.08,0.000000,,2013-03-24 08:10:00,
2013-03-24 04:32:00,43.0,41.0,-100.00,NW,306,1.0,10.0,94,0.02,,,0.08,0.000000,,2013-03-24 08:32:00,
2013-03-24 04:42:00,43.0,41.0,-100.00,NW,306,1.0,10.0,94,0.02,,,0.08,0.000000,,2013-03-24 08:42:00,
2013-03-24 04:52:00,43.0,41.0,-100.00,NW,306,1.0,10.0,94,0.02,,,0.08,0.000000,,2013-03-24 08:52:00,
2013-03-24 05:02:00,43.0,41.0,-100.00,NW,306,1.0,10.0,94,0.02,,,0.08,0.000000,,2013-03-24 09:02:00,
2013-03-24 05:10:00,43.0,42.0,-100.00,NE,39,3.0,7.0,95,0.07,,,0.15,0.000000,,2013-03-24 09:10:00,
2013-03-24 05:33:00,43.0,42.0,-100.00,NE,39,3.0,7.0,95,0.07,,,0.15,0.000000,,2013-03-24 09:33:00,
2013-03-24 05:43:00,43.0,42.0,-100.00,NE,39,3.0,7.0,95,0.07,,,0.15,0.000000,,2013-03-24 09:43:00,
2013-03-24 05:53:00,43.0,42.0,-100.00,NE,39,3.0,7.0,95,0.07,,,0.15,0.000000,,2013-03-24 09:53:00,
2013-03-24 06:03:00,43.0,42.0,-100.00,NE,39,3.0,7.0,95,0.07,,,0.15,0.000000,,2013-03-24 10:03:00,
2013-03-24 06:10:00,43.0,42.0,-100.00,NE,48,5.0,10.0,95,0.15,,,0.30,0.000000,,2013-03-24 10:10:00,
2013-03-24 06:42:00,43.0,42.0,-100.00,NE,48,5.0,10.0,95,0.15,,,0.30,0.000000,,2013-03-24 10:42:00,
2013-03-24 06:53:00,43.0,42.0,-100.00,NE,48,5.0,10.0,95,0.15,,,0.30,0.000000,,2013-03-24 10:53:00,
2013-03-24 07:03:00,43.0,42.0,-100.00,NE,48,5.0,10.0,95,0.15,,,0.30,0.000000,,2013-03-24 11:03:00,
2013-03-24 07:10:00,43.0,41.0,-100.00,NE,45,5.0,12.0,92,0.05,,,0.35,0.000000,,2013-03-24 11:10:00,
2013-03-24 07:33:00,43.0,41.0,-100.00,NE,45,5.0,12.0,92,0.05,,,0.35,0.000000,,2013-03-24 11:33:00,
2013-03-24 07:42:00,43.0,41.0,-100.00,NE,45,5.0,12.0,92,0.05,,,0.35,0.000000,,2013-03-24 11:42:00,
2013-03-24 07:52:00,43.0,41.0,-100.00,NE,45,5.0,12.0,92,0.05,,,0.35,0.000000,,2013-03-24 11:52:00,
2013-03-24 08:03:00,43.0,41.0,-100.00,NE,45,5.0,12.0,92,0.05,,,0.35,0.000000,,2013-03-24 12:03:00,
2013-03-24 08:10:00,44.0,42.0,-100.00,NW,320,4.0,15.0,93,0.04,,,0.37,0.000000,,2013-03-24 12:10:00,
2013-03-24 08:32:00,44.0,42.0,-100.00,NW,320,4.0,15.0,93,0.04,,,0.37,0.000000,,2013-03-24 12:32:00,
2013-03-24 08:42:00,44.0,42.0,-100.00,NW,320,4.0,15.0,93,0.04,,,0.37,0.000000,,2013-03-24 12:42:00,
2013-03-24 08:52:00,44.0,42.0,-100.00,NW,320,4.0,15.0,93,0.04,,,0.37,0.000000,,2013-03-24 12:52:00,
2013-03-24 09:02:00,44.0,42.0,-100.00,NW,320,4.0,15.0,93,0.04,,,0.37,0.000000,,2013-03-24 13:02:00,
2013-03-24 09:10:00,42.0,40.0,-100.00,ENE,62,6.0,13.0,94,0.24,,,0.59,0.000000,,2013-03-24 13:10:00,
2013-03-24 09:43:00,42.0,40.0,-100.00,ENE,62,6.0,13.0,94,0.24,,,0.59,0.000000,,2013-03-24 13:43:00,
2013-03-24 09:52:00,42.0,40.0,-100.00,ENE,62,6.0,13.0,94,0.24,,,0.59,0.000000,,2013-03-24 13:52:00,
2013-03-24 10:02:00,42.0,40.0,-100.00,ENE,62,6.0,13.0,94,0.24,,,0.59,0.000000,,2013-03-24 14:02:00,
2013-03-24 10:10:00,42.0,38.0,-100.00,North,6,7.0,14.0,87,0.00,,,0.59,30.000000,,2013-03-24 14:10:00,
2013-03-24 10:33:00,42.0,38.0,-100.00,North,6,7.0,14.0,87,0.00,,,0.59,30.000000,,2013-03-24 14:33:00,
2013-03-24 10:43:00,42.0,38.0,-100.00,North,6,7.0,14.0,87,0.00,,,0.59,30.000000,,2013-03-24 14:43:00,
2013-03-24 10:53:00,42.0,38.0,-100.00,North,6,7.0,14.0,87,0.00,,,0.59,30.000000,,2013-03-24 14:53:00,
2013-03-24 11:02:00,42.0,38.0,-100.00,North,6,7.0,14.0,87,0.00,,,0.59,30.000000,,2013-03-24 15:02:00,
2013-03-24 11:10:00,42.0,40.0,-100.00,North,0,9.0,15.0,91,0.05,,,0.64,39.000000,,2013-03-24 15:10:00,
2013-03-24 11:43:00,42.0,40.0,-100.00,North,0,9.0,15.0,91,0.05,,,0.64,39.000000,,2013-03-24 15:43:00,
2013-03-24 11:53:00,42.0,40.0,-100.00,North,0,9.0,15.0,91,0.05,,,0.64,39.000000,,2013-03-24 15:53:00,
2013-03-24 12:03:00,42.0,40.0,-100.00,North,0,9.0,15.0,91,0.05,,,0.64,39.000000,,2013-03-24 16:03:00,
2013-03-24 12:10:00,43.0,40.0,-100.00,North,2,11.0,21.0,88,0.02,,,0.66,89.000000,,2013-03-24 16:10:00,
2013-03-24 12:43:00,43.0,40.0,-100.00,North,2,11.0,21.0,88,0.02,,,0.66,89.000000,,2013-03-24 16:43:00,
2013-03-24 12:53:00,43.0,40.0,-100.00,North,2,11.0,21.0,88,0.02,,,0.66,89.000000,,2013-03-24 16:53:00,
2013-03-24 13:03:00,43.0,40.0,-100.00,North,2,11.0,21.0,88,0.02,,,0.66,89.000000,,2013-03-24 17:03:00,
2013-03-24 13:10:00,43.0,39.0,-100.00,North,7,9.0,21.0,87,0.04,,,0.70,158.000000,,2013-03-24 17:10:00,
2013-03-24 13:33:00,43.0,39.0,-100.00,North,7,9.0,21.0,87,0.04,,,0.70,158.000000,,2013-03-24 17:33:00,
2013-03-24 13:43:00,43.0,39.0,-100.00,North,7,9.0,21.0,87,0.04,,,0.70,158.000000,,2013-03-24 17:43:00,
2013-03-24 13:53:00,43.0,39.0,-100.00,North,7,9.0,21.0,87,0.04,,,0.70,158.000000,,2013-03-24 17:53:00,
2013-03-24 14:03:00,43.0,39.0,-100.00,North,7,9.0,21.0,87,0.04,,,0.70,158.000000,,2013-03-24 18:03:00,
2013-03-24 14:10:00,43.0,40.0,-100.00,North,357,7.0,18.0,90,0.01,,,0.71,194.000000,,2013-03-24 18:10:00,
2013-03-24 14:33:00,43.0,40.0,-100.00,North,357,7.0,18.0,90,0.01,,,0.71,194.000000,,2013-03-24 18:33:00,
2013-03-24 14:43:00,43.0,40.0,-100.00,North,357,7.0,18.0,90,0.01,,,0.71,194.000000,,2013-03-24 18:43:00,
2013-03-24 14:52:00,43.0,40.0,-100.00,North,357,7.0,18.0,90,0.01,,,0.71,194.000000,,2013-03-24 18:52:00,
2013-03-24 15:03:00,43.0,40.0,-100.00,North,357,7.0,18.0,90,0.01,,,0.71,194.000000,,2013-03-24 19:03:00,
2013-03-24 15:10:00,43.0,40.0,-100.00,North,3,8.0,13.0,88,0.00,,,0.71,180.000000,,2013-03-24 19:10:00,
2013-03-24 15:32:00,43.0,40.0,-100.00,North,3,8.0,13.0,88,0.00,,,0.71,180.000000,,2013-03-24 19:32:00,
2013-03-24 15:43:00,43.0,40.0,-100.00,North,3,8.0,13.0,88,0.00,,,0.71,180.000000,,2013-03-24 19:43:00,
2013-03-24 15:53:00,43.0,40.0,-100.00,North,3,8.0,13.0,88,0.00,,,0.71,180.000000,,2013-03-24 19:53:00,
2013-03-24 16:03:00,43.0,40.0,-100.00,North,3,8.0,13.0,88,0.00,,,0.71,180.000000,,2013-03-24 20:03:00,
2013-03-24 16:10:00,42.0,37.0,-100.00,NE,53,5.0,14.0,83,0.00,,,0.71,170.000000,,2013-03-24 20:10:00,
2013-03-24 16:43:00,42.0,37.0,-100.00,NE,53,5.0,14.0,83,0.00,,,0.71,170.000000,,2013-03-24 20:43:00,
2013-03-24 16:53:00,42.0,37.0,-100.00,NE,53,5.0,14.0,83,0.00,,,0.71,170.000000,,2013-03-24 20:53:00,
2013-03-24 17:03:00,42.0,37.0,-100.00,NE,53,5.0,14.0,83,0.00,,,0.71,170.000000,,2013-03-24 21:03:00,
2013-03-24 17:10:00,43.0,37.0,-100.00,West,279,1.0,10.0,79,0.00,,,0.71,138.000000,,2013-03-24 21:10:00,
2013-03-24 17:33:00,43.0,37.0,-100.00,West,279,1.0,10.0,79,0.00,,,0.71,138.000000,,2013-03-24 21:33:00,
2013-03-24 17:43:00,43.0,37.0,-100.00,West,279,1.0,10.0,79,0.00,,,0.71,138.000000,,2013-03-24 21:43:00,
2013-03-24 17:53:00,43.0,37.0,-100.00,West,279,1.0,10.0,79,0.00,,,0.71,138.000000,,2013-03-24 21:53:00,
2013-03-24 18:03:00,43.0,37.0,-100.00,West,279,1.0,10.0,79,0.00,,,0.71,138.000000,,2013-03-24 22:03:00,
2013-03-24 18:10:00,42.0,39.0,-100.00,SSE,161,2.0,7.0,88,0.00,,,0.71,144.000000,,2013-03-24 22:10:00,
2013-03-24 18:33:00,42.0,39.0,-100.00,SSE,161,2.0,7.0,88,0.00,,,0.71,144.000000,,2013-03-24 22:33:00,
2013-03-24 18:43:00,42.0,39.0,-100.00,SSE,161,2.0,7.0,88,0.00,,,0.71,144.000000,,2013-03-24 22:43:00,
2013-03-24 18:53:00,42.0,39.0,-100.00,SSE,161,2.0,7.0,88,0.00,,,0.71,144.000000,,2013-03-24 22:53:00,
2013-03-24 19:03:00,42.0,39.0,-100.00,SSE,161,2.0,7.0,88,0.00,,,0.71,144.000000,,2013-03-24 23:03:00,
2013-03-24 19:10:00,41.0,38.0,-100.00,WSW,256,3.0,8.0,88,0.00,,,0.71,45.000000,,2013-03-24 23:10:00,
2013-03-24 19:32:00,41.0,38.0,-100.00,WSW,256,3.0,8.0,88,0.00,,,0.71,45.000000,,2013-03-24 23:32:00,
2013-03-24 19:43:00,41.0,38.0,-100.00,WSW,256,3.0,8.0,88,0.00,,,0.71,45.000000,,2013-03-24 23:43:00,
2013-03-24 19:53:00,41.0,38.0,-100.00,WSW,256,3.0,8.0,88,0.00,,,0.71,45.000000,,2013-03-24 23:53:00,
2013-03-24 20:02:00,41.0,38.0,-100.00,WSW,256,3.0,8.0,88,0.00,,,0.71,45.000000,,2013-03-25 00:02:00,
2013-03-24 21:10:00,39.0,38.0,-100.00,SE,135,3.0,8.0,95,-99.99,,,0.71,2.000000,,2013-03-25 01:10:00,
2013-03-24 21:42:00,39.0,38.0,-100.00,SE,135,3.0,8.0,95,-99.99,,,0.71,2.000000,,2013-03-25 01:42:00,
2013-03-24 21:53:00,39.0,38.0,-100.00,SE,135,3.0,8.0,95,-99.99,,,0.71,2.000000,,2013-03-25 01:53:00,
2013-03-24 22:02:00,39.0,38.0,-100.00,SE,135,3.0,8.0,95,-99.99,,,0.71,2.000000,,2013-03-25 02:02:00,
2013-03-24 22:10:00,40.0,39.0,-100.00,SE,126,3.0,8.0,95,0.00,,,0.71,0.000000,,2013-03-25 02:10:00,
2013-03-24 22:43:00,40.0,39.0,-100.00,SE,126,3.0,8.0,95,0.00,,,0.71,0.000000,,2013-03-25 02:43:00,
2013-03-24 22:52:00,40.0,39.0,-100.00,SE,126,3.0,8.0,95,0.00,,,0.71,0.000000,,2013-03-25 02:52:00,
2013-03-24 23:03:00,40.0,39.0,-100.00,SE,126,3.0,8.0,95,0.00,,,0.71,0.000000,,2013-03-25 03:03:00,
2013-03-24 23:10:00,38.0,37.0,-100.00,East,101,1.0,7.0,95,0.01,,,0.72,0.000000,,2013-03-25 03:10:00,
2013-03-24 23:34:00,38.0,37.0,-100.00,East,101,1.0,7.0,95,0.01,,,0.72,0.000000,,2013-03-25 03:34:00,
2013-03-24 23:43:00,38.0,37.0,-100.00,East,101,1.0,7.0,95,0.01,,,0.72,0.000000,,2013-03-25 03:43:00,
2013-03-24 23:53:00,38.0,37.0,-100.00,East,101,1.0,7.0,95,0.01,,,0.72,0.000000,,2013-03-25 03:53:00,